| time (UTC) | temp F | wind direction | speed MPH | gust MPH | rain 1hr in | rain 24hr in | rain mn in | humidity % | barometer mb |
| 20260507024503 | 43 | 334 | 1.0 | 3.0 | 0.00 | 0.00 | 0.00 | 1 | 1014.2 |
| 20260507023818 | 43 | 335 | 1.0 | 3.0 | 0.00 | 0.00 | 0.00 | 1 | 1014.2 |
| 20260507022703 | 43 | 335 | 1.0 | 3.0 | 0.00 | 0.00 | 0.00 | 1 | 1014.1 |
| 20260507022018 | 43 | 335 | 1.0 | 3.0 | 0.00 | 0.00 | 0.00 | 1 | 1014.1 |
| 20260507020903 | 44 | 335 | 1.0 | 3.0 | 0.00 | 0.00 | 0.00 | 1 | 1013.9 |
| 20260507020003 | 44 | 335 | 1.0 | 3.0 | 0.00 | 0.00 | 0.00 | 1 | 1013.9 |
| 20260507015403 | 44 | 335 | 1.0 | 3.0 | 0.00 | 0.00 | 0.00 | 1 | 1013.8 |
| 20260507014503 | 44 | 334 | 1.0 | 3.0 | 0.00 | 0.00 | 0.00 | 1 | 1013.8 |
| 20260507013603 | 44 | 334 | 1.0 | 3.0 | 0.00 | 0.00 | 0.00 | 1 | 1013.7 |
| 20260507012703 | 44 | 334 | 2.0 | 3.0 | 0.00 | 0.00 | 0.00 | 1 | 1013.8 |
| 20260507011803 | 44 | 334 | 1.0 | 4.0 | 0.00 | 0.00 | 0.00 | 2 | 1013.8 |
| 20260507010903 | 44 | 333 | 2.0 | 6.0 | 0.00 | 0.00 | 0.00 | 3 | 1013.8 |
| 20260507010004 | 44 | 336 | 2.0 | 6.0 | 0.00 | 0.00 | 0.00 | 4 | 1013.7 |
| 20260507005403 | 44 | 340 | 2.0 | 5.0 | 0.00 | 0.00 | 0.00 | 4 | 1013.8 |
| 20260507004503 | 45 | 341 | 2.0 | 5.0 | 0.00 | 0.00 | 0.00 | 5 | 1013.8 |
| 20260507003603 | 45 | 341 | 2.0 | 5.0 | 0.00 | 0.00 | 0.00 | 5 | 1013.8 |
| 20260507002918 | 45 | 341 | 2.0 | 5.0 | 0.00 | 0.00 | 0.00 | 6 | 1013.8 |
| 20260507001803 | 45 | 340 | 2.0 | 5.0 | 0.00 | 0.00 | 0.00 | 7 | 1013.6 |
| 20260507000903 | 45 | 340 | 2.0 | 5.0 | 0.00 | 0.00 | 0.00 | 8 | 1013.7 |
| 20260507000004 | 45 | 341 | 2.0 | 5.0 | 0.00 | 0.00 | 0.00 | 9 | 1013.7 |
| 20260506235618 | 45 | 343 | 2.0 | 5.0 | 0.00 | 0.00 | 0.00 | 10 | 1013.8 |
| 20260506234503 | 45 | 344 | 1.0 | 4.0 | 0.00 | 0.00 | 0.00 | 12 | 1013.7 |
| 20260506233603 | 45 | 344 | 1.0 | 4.0 | 0.00 | 0.00 | 0.00 | 14 | 1013.7 |
| 20260506232703 | 45 | 344 | 1.0 | 4.0 | 0.00 | 0.00 | 0.00 | 16 | 1013.8 |
| 20260506232017 | 45 | 344 | 1.0 | 4.0 | 0.00 | 0.00 | 0.00 | 16 | 1013.7 |
| 20260506231117 | 46 | 344 | 1.0 | 4.0 | 0.00 | 0.00 | 0.00 | 16 | 1013.7 |
| 20260506230004 | 46 | 344 | 2.0 | 5.0 | 0.00 | 0.00 | 0.00 | 16 | 1013.8 |
| 20260506225403 | 46 | 343 | 2.0 | 5.0 | 0.00 | 0.00 | 0.00 | 17 | 1013.7 |
| 20260506224503 | 46 | 340 | 2.0 | 5.0 | 0.00 | 0.00 | 0.00 | 19 | 1013.7 |
| 20260506223603 | 46 | 339 | 2.0 | 4.0 | 0.00 | 0.00 | 0.00 | 20 | 1013.6 |
| 20260506222703 | 46 | 338 | 2.0 | 5.0 | 0.00 | 0.00 | 0.00 | 22 | 1013.5 |
| 20260506222017 | 46 | 336 | 2.0 | 5.0 | 0.00 | 0.00 | 0.00 | 22 | 1013.5 |
| 20260506220903 | 46 | 335 | 2.0 | 5.0 | 0.00 | 0.00 | 0.00 | 25 | 1013.5 |
| 20260506220007 | 47 | 340 | 2.0 | 4.0 | 0.00 | 0.00 | 0.00 | 27 | 1013.5 |
| 20260506215403 | 47 | 340 | 2.0 | 5.0 | 0.00 | 0.00 | 0.00 | 29 | 1013.5 |
| 20260506214503 | 47 | 340 | 2.0 | 5.0 | 0.00 | 0.00 | 0.00 | 31 | 1013.4 |
| 20260506213818 | 47 | 341 | 2.0 | 5.0 | 0.00 | 0.00 | 0.00 | 33 | 1013.4 |
| 20260506212703 | 48 | 342 | 2.0 | 6.0 | 0.00 | 0.00 | 0.00 | 36 | 1013.4 |
| 20260506211803 | 48 | 338 | 2.0 | 5.0 | 0.00 | 0.00 | 0.00 | 39 | 1013.3 |
| 20260506210903 | 48 | 346 | 2.0 | 5.0 | 0.00 | 0.00 | 0.00 | 42 | 1013.2 |
| 20260506210217 | 48 | 344 | 2.0 | 6.0 | 0.00 | 0.00 | 0.00 | 45 | 1013.1 |
| 20260506205617 | 48 | 340 | 2.0 | 6.0 | 0.00 | 0.00 | 0.00 | 47 | 1013.1 |
| 20260506204503 | 49 | 356 | 3.0 | 8.0 | 0.00 | 0.00 | 0.00 | 50 | 1013.1 |
| 20260506203603 | 49 | 342 | 3.0 | 9.0 | 0.00 | 0.00 | 0.00 | 53 | 1013.1 |
| 20260506202703 | 49 | 356 | 3.0 | 10.0 | 0.00 | 0.00 | 0.00 | 55 | 1013.0 |
| 20260506201803 | 50 | 348 | 3.0 | 9.0 | 0.00 | 0.00 | 0.00 | 58 | 1012.9 |
| 20260506200903 | 50 | 356 | 3.0 | 10.0 | 0.00 | 0.00 | 0.00 | 61 | 1012.8 |
| 20260506200004 | 50 | 1 | 4.0 | 11.0 | 0.00 | 0.00 | 0.00 | 65 | 1012.8 |
| 20260506195403 | 50 | 352 | 3.0 | 9.0 | 0.00 | 0.00 | 0.00 | 66 | 1012.7 |
| 20260506194508 | 50 | 346 | 4.0 | 10.0 | 0.00 | 0.00 | 0.00 | 68 | 1012.6 |
| 20260506193603 | 51 | 349 | 4.0 | 10.0 | 0.00 | 0.00 | 0.00 | 69 | 1012.4 |
| 20260506192703 | 51 | 351 | 3.0 | 10.0 | 0.00 | 0.00 | 0.00 | 69 | 1012.3 |
| 20260506191803 | 51 | 340 | 3.0 | 9.0 | 0.00 | 0.00 | 0.00 | 68 | 1012.2 |
| 20260506190903 | 52 | 355 | 4.0 | 8.0 | 0.00 | 0.00 | 0.00 | 67 | 1012.0 |
| 20260506190004 | 52 | 358 | 5.0 | 12.0 | 0.00 | 0.00 | 0.00 | 66 | 1012.0 |
| 20260506185403 | 52 | 359 | 5.0 | 12.0 | 0.00 | 0.00 | 0.00 | 65 | 1011.9 |
| 20260506184503 | 53 | 349 | 5.0 | 13.0 | 0.00 | 0.00 | 0.00 | 66 | 1011.8 |
| 20260506183604 | 53 | 6 | 5.0 | 14.0 | 0.00 | 0.00 | 0.00 | 65 | 1011.7 |
| 20260506182703 | 53 | 358 | 4.0 | 13.0 | 0.00 | 0.00 | 0.00 | 65 | 1011.6 |
| 20260506182017 | 53 | 5 | 5.0 | 12.0 | 0.00 | 0.00 | 0.00 | 66 | 1011.6 |
| 20260506180903 | 53 | 8 | 4.0 | 12.0 | 0.00 | 0.00 | 0.00 | 65 | 1011.4 |
| 20260506180004 | 53 | 4 | 4.0 | 13.0 | 0.00 | 0.00 | 0.00 | 65 | 1011.3 |
| 20260506175618 | 54 | 5 | 4.0 | 13.0 | 0.00 | 0.00 | 0.00 | 65 | 1011.2 |
| 20260506174717 | 54 | 4 | 4.0 | 16.0 | 0.00 | 0.00 | 0.00 | 63 | 1011.1 |
| 20260506173603 | 54 | 356 | 4.0 | 11.0 | 0.00 | 0.00 | 0.00 | 63 | 1011.0 |
| 20260506172703 | 54 | 2 | 5.0 | 15.0 | 0.00 | 0.00 | 0.00 | 63 | 1010.9 |
| 20260506171803 | 55 | 359 | 5.0 | 16.0 | 0.00 | 0.00 | 0.00 | 62 | 1010.8 |
| 20260506170903 | 55 | 356 | 6.0 | 16.0 | 0.00 | 0.00 | 0.00 | 62 | 1010.8 |
| 20260506170004 | 55 | 6 | 6.0 | 16.0 | 0.00 | 0.00 | 0.00 | 63 | 1010.7 |
| 20260506165403 | 56 | 353 | 6.0 | 17.0 | 0.00 | 0.00 | 0.00 | 63 | 1010.7 |
| 20260506164503 | 56 | 356 | 7.0 | 16.0 | 0.00 | 0.00 | 0.00 | 62 | 1010.6 |
| 20260506163818 | 57 | 8 | 7.0 | 16.0 | 0.00 | 0.00 | 0.00 | 62 | 1010.5 |
| 20260506162703 | 57 | 360 | 7.0 | 17.0 | 0.00 | 0.00 | 0.00 | 61 | 1010.5 |
| 20260506161803 | 57 | 4 | 6.0 | 17.0 | 0.00 | 0.00 | 0.00 | 61 | 1010.5 |
| 20260506160903 | 57 | 360 | 6.0 | 15.0 | 0.00 | 0.00 | 0.00 | 61 | 1010.4 |
| 20260506160003 | 57 | 4 | 5.0 | 18.0 | 0.00 | 0.00 | 0.00 | 63 | 1010.4 |
| 20260506155403 | 57 | 5 | 5.0 | 18.0 | 0.00 | 0.00 | 0.00 | 63 | 1010.4 |
| 20260506154503 | 57 | 14 | 5.0 | 13.0 | 0.00 | 0.00 | 0.00 | 62 | 1010.3 |
| 20260506153603 | 57 | 13 | 6.0 | 14.0 | 0.00 | 0.00 | 0.00 | 62 | 1010.3 |
| 20260506152703 | 58 | 10 | 5.0 | 14.0 | 0.00 | 0.00 | 0.00 | 61 | 1010.4 |
| 20260506151803 | 58 | 2 | 5.0 | 16.0 | 0.00 | 0.00 | 0.00 | 61 | 1010.4 |
| 20260506150903 | 58 | 7 | 6.0 | 16.0 | 0.00 | 0.00 | 0.00 | 60 | 1010.4 |
| 20260506150217 | 58 | 10 | 6.0 | 16.0 | 0.00 | 0.00 | 0.00 | 60 | 1010.3 |
| 20260506145403 | 59 | 8 | 5.0 | 16.0 | 0.00 | 0.00 | 0.00 | 59 | 1010.2 |
| 20260506144503 | 59 | 3 | 5.0 | 18.0 | 0.00 | 0.00 | 0.00 | 55 | 1010.2 |
| 20260506143603 | 59 | 8 | 6.0 | 17.0 | 0.00 | 0.00 | 0.00 | 55 | 1010.2 |
| 20260506142703 | 59 | 18 | 5.0 | 15.0 | 0.00 | 0.00 | 0.00 | 54 | 1010.1 |
| 20260506141803 | 59 | 18 | 5.0 | 15.0 | 0.00 | 0.00 | 0.00 | 54 | 1010.1 |
| 20260506140903 | 59 | 11 | 6.0 | 14.0 | 0.00 | 0.00 | 0.00 | 53 | 1010.1 |
| 20260506140004 | 59 | 3 | 6.0 | 17.0 | 0.00 | 0.00 | 0.00 | 54 | 1010.1 |
| 20260506135403 | 59 | 14 | 6.0 | 17.0 | 0.00 | 0.00 | 0.00 | 54 | 1010.1 |
| 20260506134503 | 58 | 16 | 6.0 | 15.0 | 0.00 | 0.00 | 0.00 | 55 | 1010.1 |
| 20260506133817 | 58 | 5 | 6.0 | 15.0 | 0.00 | 0.00 | 0.00 | 54 | 1010.1 |
| 20260506132703 | 58 | 6 | 6.0 | 18.0 | 0.00 | 0.00 | 0.00 | 54 | 1010.1 |
| 20260506132018 | 58 | 13 | 6.0 | 18.0 | 0.00 | 0.00 | 0.00 | 54 | 1010.0 |
| 20260506130903 | 58 | 14 | 5.0 | 13.0 | 0.00 | 0.00 | 0.00 | 51 | 1010.1 |
| 20260506130004 | 59 | 9 | 5.0 | 15.0 | 0.00 | 0.00 | 0.00 | 52 | 1010.0 |
| 20260506125403 | 59 | 6 | 4.0 | 15.0 | 0.00 | 0.00 | 0.00 | 50 | 1009.9 |
| 20260506124717 | 59 | 350 | 3.0 | 13.0 | 0.00 | 0.00 | 0.00 | 50 | 1009.9 |
| 20260506123603 | 59 | 13 | 4.0 | 15.0 | 0.00 | 0.00 | 0.00 | 48 | 1009.8 |
| 20260506122703 | 60 | 345 | 3.0 | 9.0 | 0.00 | 0.00 | 0.00 | 48 | 1009.8 |
| 20260506121803 | 60 | 5 | 4.0 | 14.0 | 0.00 | 0.00 | 0.00 | 45 | 1009.8 |
| 20260506121116 | 61 | 4 | 4.0 | 14.0 | 0.00 | 0.00 | 0.00 | 45 | 1009.8 |
| 20260506120003 | 60 | 348 | 4.0 | 13.0 | 0.00 | 0.00 | 0.00 | 44 | 1009.7 |
| 20260506115403 | 61 | 4 | 5.0 | 14.0 | 0.00 | 0.00 | 0.00 | 44 | 1009.7 |
| 20260506114503 | 61 | 5 | 5.0 | 13.0 | 0.00 | 0.00 | 0.00 | 45 | 1009.7 |
| 20260506113603 | 60 | 358 | 6.0 | 15.0 | 0.00 | 0.00 | 0.00 | 49 | 1009.7 |
| 20260506112703 | 59 | 14 | 7.0 | 19.0 | 0.00 | 0.00 | 0.00 | 50 | 1009.7 |
| 20260506111803 | 60 | 1 | 5.0 | 17.0 | 0.00 | 0.00 | 0.00 | 49 | 1009.8 |
| 20260506110903 | 59 | 358 | 4.0 | 13.0 | 0.00 | 0.00 | 0.00 | 47 | 1009.7 |
| 20260506110004 | 58 | 12 | 6.0 | 14.0 | 0.00 | 0.00 | 0.00 | 49 | 1009.7 |
| 20260506105403 | 58 | 17 | 7.0 | 19.0 | 0.00 | 0.00 | 0.00 | 47 | 1009.8 |
| 20260506104503 | 59 | 5 | 5.0 | 16.0 | 0.00 | 0.00 | 0.00 | 49 | 1009.8 |
| 20260506103603 | 59 | 1 | 5.0 | 16.0 | 0.00 | 0.00 | 0.00 | 49 | 1009.8 |
| 20260506102703 | 58 | 4 | 5.0 | 17.0 | 0.00 | 0.00 | 0.00 | 51 | 1009.7 |
| 20260506101803 | 58 | 1 | 5.0 | 14.0 | 0.00 | 0.00 | 0.00 | 52 | 1009.8 |
| 20260506100903 | 58 | 13 | 6.0 | 16.0 | 0.00 | 0.00 | 0.00 | 51 | 1009.7 |
| 20260506100004 | 58 | 3 | 5.0 | 15.0 | 0.00 | 0.00 | 0.00 | 51 | 1009.6 |
| 20260506095617 | 58 | 7 | 6.0 | 15.0 | 0.00 | 0.00 | 0.00 | 53 | 1009.6 |
| 20260506094503 | 57 | 9 | 4.0 | 13.0 | 0.00 | 0.00 | 0.00 | 52 | 1009.6 |
| 20260506093603 | 57 | 1 | 5.0 | 17.0 | 0.00 | 0.00 | 0.00 | 53 | 1009.6 |
| 20260506092703 | 56 | 11 | 6.0 | 17.0 | 0.00 | 0.00 | 0.00 | 55 | 1009.6 |
| 20260506091803 | 56 | 11 | 5.0 | 17.0 | 0.00 | 0.00 | 0.00 | 57 | 1009.5 |
| 20260506090903 | 56 | 12 | 5.0 | 16.0 | 0.00 | 0.00 | 0.00 | 59 | 1009.6 |
| 20260506090004 | 56 | 4 | 5.0 | 17.0 | 0.00 | 0.00 | 0.00 | 60 | 1009.5 |
| 20260506085618 | 56 | 1 | 4.0 | 13.0 | 0.00 | 0.00 | 0.00 | 62 | 1009.5 |
| 20260506084503 | 55 | 12 | 7.0 | 16.0 | 0.00 | 0.00 | 0.00 | 63 | 1009.5 |
| 20260506083603 | 55 | 8 | 6.0 | 15.0 | 0.00 | 0.00 | 0.00 | 64 | 1009.5 |
| 20260506082703 | 54 | 13 | 6.0 | 16.0 | 0.00 | 0.00 | 0.00 | 65 | 1009.5 |
| 20260506081803 | 54 | 13 | 6.0 | 14.0 | 0.00 | 0.00 | 0.00 | 66 | 1009.4 |
| 20260506080903 | 54 | 11 | 5.0 | 16.0 | 0.00 | 0.00 | 0.00 | 64 | 1009.4 |
| 20260506080218 | 54 | 7 | 5.0 | 13.0 | 0.00 | 0.00 | 0.00 | 61 | 1009.4 |
| 20260506072703 | 54 | 12 | 5.0 | 15.0 | 0.00 | 0.00 | 0.00 | 53 | 1009.3 |
| 20260506071803 | 54 | 10 | 5.0 | 15.0 | 0.00 | 0.00 | 0.00 | 48 | 1009.3 |
| 20260506070903 | 54 | 13 | 5.0 | 14.0 | 0.00 | 0.00 | 0.00 | 40 | 1009.3 |
| 20260506061803 | 52 | 17 | 6.0 | 14.0 | 0.00 | 0.00 | 0.00 | 1 | 1009.1 |
| 20260506060903 | 52 | 2 | 4.0 | 14.0 | 0.00 | 0.00 | 0.00 | 1 | 1009.0 |
| 20260506050903 | 51 | 16 | 6.0 | 14.0 | 0.00 | 0.00 | 0.00 | 1 | 1009.0 |
| 20260506044503 | 51 | 18 | 6.0 | 17.0 | 0.00 | 0.00 | 0.00 | 1 | 1008.9 |
| 20260506043603 | 51 | 11 | 5.0 | 12.0 | 0.00 | 0.00 | 0.00 | 1 | 1008.9 |
| 20260506042703 | 51 | 1 | 5.0 | 14.0 | 0.00 | 0.00 | 0.00 | 1 | 1008.9 |
| 20260506041803 | 51 | 355 | 4.0 | 13.0 | 0.00 | 0.00 | 0.00 | 1 | 1008.8 |
| 20260506041118 | 51 | 356 | 4.0 | 12.0 | 0.00 | 0.00 | 0.00 | 4 | 1008.9 |
| 20260506040003 | 51 | 1 | 4.0 | 11.0 | 0.00 | 0.00 | 0.00 | 8 | 1009.0 |
| 20260506035619 | 51 | 5 | 3.0 | 11.0 | 0.00 | 0.00 | 0.00 | 9 | 1008.9 |
| 20260506034503 | 51 | 360 | 4.0 | 16.0 | 0.00 | 0.00 | 0.00 | 11 | 1009.0 |
| 20260506033603 | 51 | 4 | 4.0 | 10.0 | 0.00 | 0.00 | 0.00 | 13 | 1009.0 |
| 20260506032703 | 51 | 354 | 4.0 | 11.0 | 0.00 | 0.00 | 0.00 | 14 | 1009.0 |
| 20260506031803 | 50 | 357 | 4.0 | 11.0 | 0.00 | 0.00 | 0.00 | 15 | 1009.2 |
| 20260506030903 | 50 | 354 | 3.0 | 11.0 | 0.00 | 0.00 | 0.00 | 16 | 1009.2 |
| 20260506030003 | 50 | 358 | 3.0 | 11.0 | 0.00 | 0.00 | 0.00 | 16 | 1009.3 |
| 20260506025403 | 50 | 2 | 3.0 | 11.0 | 0.00 | 0.00 | 0.00 | 16 | 1009.4 |